Theta_e
323 323 323 323 323 323 323 324 325 325 325 325 324 325 325 326 324 322 311 319 324 350 355 329 334 332 333 333 337 335 313 311 318 321 321 329 330 337 338 334 336 337 334 336 337
323 322 321 320 321 322 321 320 322 323 323 323 323 324 325 325 320 316 331 346 353 357 329 324 323 328 324 332 334 323 310 315 326 326 326 333 331 327 331 331 330 332 337 339 340
321 319 319 319 320 320 320 322 321 321 322 322 323 324 325 324 317 317 352 348 359 356 325 320 321 321 317 328 331 327 313 324 329 331 331 334 330 334 328 326 330 330 333 336 338
319 318 319 319 319 319 319 321 321 321 321 322 323 324 326 320 304 320 351 352 359 334 321 320 321 317 316 317 331 323 326 328 331 335 331 332 334 331 331 331 338 337 337 336 336
318 318 318 318 318 319 319 320 320 320 321 322 324 325 318 310 311 325 354 354 332 318 315 319 317 317 312 315 325 322 322 323 332 331 333 333 331 331 329 335 338 339 337 335 335
317 317 317 317 317 319 319 319 319 319 321 323 325 325 313 302 317 330 326 323 317 315 319 321 319 320 315 312 313 324 327 328 330 330 331 328 331 330 330 334 335 335 334 335 335
317 317 317 317 317 318 318 318 318 319 321 324 326 324 313 309 322 326 318 312 311 317 316 321 323 309 311 311 316 326 323 326 325 325 326 331 325 326 330 334 331 332 333 334 335
317 316 316 316 316 317 316 316 317 319 322 327 326 318 308 321 320 318 316 314 314 316 319 321 318 310 308 312 312 314 318 310 322 325 326 324 313 328 331 330 329 330 333 334 335
316 316 316 316 316 317 316 316 318 321 327 325 313 312 307 328 320 320 318 315 313 314 316 323 313 306 309 303 300 309 304 311 315 325 326 322 315 327 331 328 325 324 328 334 334
317 316 315 315 315 315 315 316 317 319 322 325 321 306 313 315 316 317 318 317 315 314 316 312 305 301 300 298 293 301 306 312 311 322 322 321 318 327 330 328 326 325 325 331 331
317 315 315 314 314 314 310 310 312 310 311 306 307 310 314 319 319 315 318 317 313 312 305 307 300 296 300 302 304 304 305 307 314 323 321 318 317 324 328 328 328 327 325 325 330
316 315 314 314 313 313 309 305 314 312 304 314 314 313 315 315 311 314 316 308 307 303 304 301 297 304 306 307 304 303 301 302 307 321 319 313 312 324 326 326 329 328 327 326 325
316 314 313 313 312 308 305 308 311 312 304 309 313 312 312 313 310 311 314 309 304 301 301 299 303 309 307 305 304 303 299 302 303 307 315 309 305 320 327 327 329 330 330 330 328
315 314 313 312 306 309 309 313 311 311 298 304 306 314 316 314 307 318 316 311 305 302 302 300 306 305 304 302 302 294 306 306 307 303 296 304 294 307 319 322 324 327 324 330 329
315 313 311 311 304 309 318 311 310 309 292 311 306 319 313 307 308 310 317 311 305 305 303 301 304 303 301 302 303 301 306 305 306 298 296 298 295 299 316 316 320 323 321 328 331
314 313 311 308 305 308 313 311 311 299 294 306 309 309 304 304 305 310 311 312 313 306 305 304 308 306 305 307 305 307 301 299 298 294 290 294 298 298 309 316 320 324 322 327 332
311 310 308 313 309 315 314 310 298 294 309 304 303 304 303 302 303 305 306 305 302 297 297 304 305 308 310 303 305 300 292 287 288 288 289 296 298 301 312 318 318 320 321 326 332
309 308 307 312 312 313 310 303 294 306 304 306 305 304 301 302 304 305 303 301 305 303 297 296 298 303 307 304 302 297 294 288 284 286 291 298 296 302 311 319 321 321 322 325 327
308 305 308 313 313 310 307 296 299 305 308 306 305 301 301 305 302 302 301 301 306 305 299 295 298 308 308 304 304 298 294 297 290 289 288 292 298 305 310 312 317 321 323 323 326
308 311 314 320 313 310 303 298 303 310 308 307 300 302 298 302 302 298 298 304 305 308 309 302 296 307 309 306 304 301 301 293 289 287 285 292 295 297 302 308 311 316 318 321 325
311 311 317 316 314 307 298 300 308 313 312 305 303 301 301 301 302 301 302 308 312 310 309 305 300 303 304 300 300 299 297 295 293 291 288 287 292 304 304 308 310 312 314 319 326
310 309 315 314 303 302 300 306 309 311 311 309 307 305 303 304 301 302 304 307 315 313 305 306 297 295 301 306 307 302 302 294 291 290 290 289 292 308 307 311 311 314 316 320 326
306 309 315 314 299 300 304 308 307 307 307 308 307 308 307 302 300 304 307 312 313 313 308 307 297 292 297 301 304 302 303 302 299 294 292 288 294 308 312 312 316 314 319 321 324
309 303 305 309 305 304 300 302 302 310 308 307 305 305 303 301 302 302 303 310 311 313 323 311 296 295 292 296 300 299 302 302 299 295 294 298 301 305 308 310 313 313 315 322 323
306 301 303 298 301 302 300 302 303 302 305 305 303 303 300 295 298 298 302 302 306 316 306 303 297 299 301 305 305 304 304 302 300 300 296 301 300 305 307 310 312 315 318 322 320
300 300 302 301 303 301 299 299 301 302 302 300 300 303 301 295 296 295 297 296 298 302 298 299 294 296 298 305 304 301 305 306 304 306 302 304 304 313 314 313 314 317 319 322 322
307 305 304 302 300 297 298 300 302 303 304 306 304 300 299 301 302 301 301 300 300 297 295 293 293 292 289 298 299 295 302 302 302 304 304 300 305 313 314 316 314 316 320 319 320
Wind_Speed
11 11 11 12 12 12 12 12 12 12 12 13 13 12 11 12 16 3 6 10 7 7 2 3 4 3 2 5 5 5 5 1 2 1 3 13 10 3 9 7 4 1 7 17 19
12 12 13 13 13 13 12 13 14 13 12 13 13 12 11 11 3 8 12 12 10 11 4 3 6 5 1 6 1 5 1 5 4 3 4 5 5 6 3 10 11 17 18 17 17
13 13 13 13 13 13 13 13 13 14 13 13 13 12 11 8 4 8 2 14 10 12 3 2 4 2 4 5 4 3 4 5 4 6 7 5 3 1 4 5 12 22 17 16 15
14 13 13 14 14 14 14 14 13 13 13 13 12 12 10 2 3 3 7 15 11 6 2 4 3 4 4 5 11 6 8 7 4 8 5 5 5 4 3 2 14 21 20 16 17
14 14 14 14 14 15 15 14 14 13 13 12 11 10 3 3 11 2 9 10 6 4 3 2 3 1 3 7 1 3 2 3 2 3 6 9 7 6 8 11 15 18 18 18 16
15 15 14 14 15 15 15 15 14 14 13 11 8 6 0 3 6 8 9 7 5 4 3 7 5 3 6 4 3 3 2 4 3 3 6 7 5 9 8 5 20 19 18 18 17
15 16 16 15 15 15 15 16 16 14 12 8 5 3 1 15 2 6 6 6 3 5 4 3 4 3 5 8 5 7 3 4 4 4 1 7 3 9 6 8 11 16 18 17 17
16 16 16 16 16 16 17 17 16 14 10 6 2 2 8 6 4 6 4 5 5 5 4 9 3 4 2 4 8 4 4 1 5 4 3 7 9 9 7 14 14 14 21 18 18
16 17 16 17 17 16 17 19 17 10 5 3 1 1 11 11 6 10 9 7 5 5 6 10 2 1 8 4 6 5 4 3 8 6 4 6 7 7 10 11 9 7 15 19 17
15 17 16 16 17 16 20 17 4 3 3 5 5 3 6 4 4 8 8 10 4 4 6 2 6 2 5 6 5 3 4 4 6 6 10 7 11 5 13 10 9 7 6 20 18
15 16 16 15 15 12 11 3 4 3 1 11 9 6 5 5 1 4 6 8 3 4 4 6 3 7 13 9 12 8 9 15 9 8 8 16 8 12 14 8 7 3 7 9 16
16 16 16 15 13 11 3 2 7 6 8 16 14 9 8 4 5 7 8 6 6 7 3 5 7 15 12 12 9 9 10 8 7 9 9 7 11 8 13 13 11 12 11 13 8
17 17 15 14 13 3 4 10 2 8 2 8 8 7 8 8 8 12 13 7 5 5 6 8 16 6 11 15 13 14 7 4 7 5 6 2 2 4 7 3 7 12 13 12 16
19 17 15 13 3 2 6 7 3 4 5 8 4 8 5 7 6 8 10 9 4 10 6 8 17 13 16 10 6 7 11 6 4 3 3 4 7 6 7 17 14 18 9 14 13
17 16 12 4 5 3 7 6 8 5 4 3 3 2 5 10 2 1 8 4 9 9 6 12 5 7 7 9 6 12 7 8 3 3 2 0 3 9 3 10 19 18 14 15 16
17 12 8 3 3 10 11 8 5 7 5 3 6 7 6 4 4 1 5 2 6 5 5 11 5 5 8 7 4 5 3 7 6 4 4 7 6 7 6 17 15 19 15 16 18
17 8 4 2 5 4 5 6 7 3 6 0 3 5 8 8 5 6 7 8 7 4 6 9 8 9 8 7 9 3 8 5 5 4 8 9 2 13 11 15 18 21 19 19 17
18 6 10 7 1 7 5 7 3 6 5 1 1 4 4 4 7 6 6 6 7 5 2 3 13 4 2 10 13 6 10 8 5 4 6 3 8 11 12 18 19 14 18 15 13
12 1 2 7 6 3 7 4 6 3 5 6 6 6 5 5 2 4 9 9 11 12 11 6 9 6 6 3 12 6 3 9 5 1 3 5 10 12 4 6 7 14 9 13 12
2 1 4 2 9 5 6 4 5 4 1 6 5 4 4 7 6 4 2 5 8 11 13 7 7 12 14 2 2 9 4 1 2 1 5 6 6 7 5 5 7 8 11 12 13
2 4 5 8 5 6 3 6 7 8 4 2 2 2 4 4 3 3 3 6 18 7 8 12 7 14 4 3 8 1 5 1 6 6 7 3 7 7 7 6 7 9 10 11 17
2 3 3 5 5 1 2 5 5 10 4 5 4 5 1 2 2 1 2 4 15 10 8 6 5 5 10 6 6 5 3 5 6 7 2 3 9 3 6 12 9 5 8 9 14
2 3 3 7 2 3 7 5 3 11 10 4 8 4 4 6 6 3 6 8 16 11 5 6 3 3 10 10 6 6 1 3 4 4 4 4 7 4 9 10 8 11 3 9 9
3 4 6 5 1 2 4 5 7 8 9 7 4 8 9 8 4 6 10 8 10 4 12 6 4 3 5 7 2 6 2 4 3 2 3 5 9 11 8 4 7 11 14 6 8
5 1 2 3 5 6 2 6 5 8 5 10 8 10 4 4 8 8 6 9 12 6 7 4 4 5 5 6 5 4 8 7 6 7 6 9 9 11 8 1 2 3 7 4 6
4 4 6 3 5 5 7 5 5 5 5 5 5 5 5 2 2 4 3 2 7 7 5 5 4 5 5 6 5 8 8 5 2 4 3 7 7 3 1 5 8 4 5 2 10
4 4 4 5 7 6 4 4 7 5 5 4 3 3 5 5 4 5 6 7 9 7 5 2 3 4 6 4 8 5 2 4 4 2 4 4 5 4 1 7 2 1 4 6 6
Wind_Direction
3 0 356 351 347 340 340 335 332 335 334 333 334 331 324 320 307 174 244 221 187 205 185 276 240 245 196 252 151 114 42 72 263 22 168 173 196 266 25 77 55 95 126 141 152
3 359 355 351 346 341 340 333 330 334 332 332 333 330 324 330 293 244 229 225 224 160 213 220 280 336 227 248 43 87 138 219 203 199 181 172 169 149 103 84 77 86 103 126 139
2 356 351 349 343 338 333 327 328 330 332 330 329 327 320 322 322 251 186 206 167 172 256 301 313 285 244 179 145 143 213 229 199 209 167 166 116 238 101 118 150 141 135 143 142
355 350 348 342 340 335 331 328 328 327 328 327 326 324 319 266 236 294 336 176 165 169 296 342 13 354 303 316 158 169 235 197 199 166 162 160 110 90 79 231 157 153 149 157 160
350 346 343 339 335 332 329 325 326 324 325 324 326 326 323 11 252 223 98 129 139 159 194 197 304 214 260 292 323 136 241 280 124 250 183 115 155 180 197 236 174 157 164 171 175
347 343 340 336 333 330 327 325 322 320 321 320 320 319 6 279 248 154 136 136 182 192 200 181 227 246 258 268 255 173 107 280 37 256 183 133 155 131 247 207 145 166 178 179 184
344 339 337 333 330 328 326 321 316 314 314 313 303 274 293 236 347 131 146 185 205 193 232 200 224 355 283 331 344 142 176 132 193 207 247 108 118 240 179 190 183 197 188 189 189
342 338 333 329 328 326 319 312 307 306 303 278 232 244 249 253 240 268 184 285 210 247 238 275 340 273 15 314 343 25 36 315 213 155 241 124 256 228 181 175 205 216 188 191 191
338 335 330 327 325 321 314 306 297 286 271 160 109 137 267 301 175 222 169 218 190 252 262 275 312 164 347 41 353 1 241 227 317 187 176 166 254 195 194 192 211 199 173 190 192
329 333 328 325 325 323 317 299 251 314 193 196 260 348 275 254 222 158 194 194 164 217 333 335 44 26 348 69 248 296 284 253 233 210 204 202 247 174 197 204 220 194 192 177 185
326 329 326 322 324 330 347 354 28 360 232 199 194 223 276 218 152 218 174 167 111 90 200 274 86 236 247 219 238 248 251 265 255 213 160 222 220 206 200 205 197 252 206 181 191
326 329 323 320 318 322 315 202 212 160 289 228 235 257 275 58 330 241 113 142 129 201 192 355 245 237 242 260 252 261 249 244 284 181 157 233 224 218 194 206 203 198 203 187 173
325 328 323 319 315 291 215 228 164 39 336 286 192 209 232 136 212 231 145 173 163 197 209 190 242 246 232 263 272 280 271 270 243 316 193 151 283 168 231 241 239 237 224 214 172
325 326 323 322 308 269 244 241 212 112 47 276 183 253 191 163 294 184 171 145 177 206 237 225 256 244 258 248 222 247 250 248 281 84 240 108 275 247 233 215 219 230 216 213 210
318 319 320 301 306 214 237 16 138 63 22 150 187 163 148 154 226 315 169 112 185 225 132 249 285 284 255 238 181 227 227 248 275 55 48 247 55 261 199 238 233 222 229 216 207
316 312 311 173 219 246 304 299 96 45 278 247 143 168 106 238 244 53 140 101 189 216 249 245 251 215 236 275 237 267 62 32 46 80 359 257 154 280 196 226 225 237 223 223 204
315 293 231 256 221 328 291 39 54 125 308 32 201 152 181 197 245 186 164 172 189 173 265 295 262 258 240 286 301 130 56 349 349 10 227 269 176 240 228 225 212 212 214 210 206
317 268 212 229 285 358 41 54 111 243 292 5 41 186 155 168 250 217 163 189 259 188 93 238 316 171 209 190 209 176 147 158 220 202 257 337 249 266 223 226 210 213 209 194 197
320 145 203 252 170 159 71 76 210 245 311 353 26 72 352 327 205 177 204 203 213 175 175 183 261 285 225 258 150 224 187 187 152 76 52 247 296 305 292 151 181 214 200 203 199
13 355 257 218 137 69 75 238 248 234 295 44 44 59 345 338 30 69 343 285 271 204 198 231 270 264 278 188 238 162 179 138 360 203 284 294 294 250 329 233 228 218 203 196 197
32 33 265 110 77 53 143 242 281 285 269 122 223 295 0 24 329 318 327 297 6 323 188 209 174 270 27 197 199 331 267 165 127 142 181 232 267 227 255 244 188 182 215 193 186
9 43 254 91 54 93 198 222 267 284 45 44 93 79 78 356 342 16 0 2 6 1 6 350 167 191 221 258 215 132 73 128 125 290 229 183 265 332 314 15 287 202 195 166 178
59 262 346 89 80 328 297 297 314 13 360 13 30 47 21 28 7 334 6 55 25 28 24 318 333 13 342 350 6 74 113 156 122 92 176 140 270 308 15 350 13 343 248 169 168
76 41 335 34 177 3 338 308 333 19 42 37 43 54 30 6 29 323 353 352 14 47 13 48 34 133 198 241 256 298 331 287 114 88 268 222 279 293 305 349 1 360 347 23 67
27 355 166 313 321 327 333 342 17 8 26 21 29 35 48 356 349 355 346 326 345 69 27 80 281 14 289 285 342 308 346 284 185 214 164 252 230 271 243 107 124 132 266 230 101
69 36 347 288 306 347 1 350 40 352 42 8 57 354 18 50 190 289 332 355 261 321 32 353 280 335 275 293 342 317 312 315 330 64 315 343 325 273 320 302 19 64 113 20 305
326 337 101 291 337 40 350 17 33 18 341 26 346 349 321 285 219 217 215 223 227 253 289 221 188 33 267 350 346 334 117 24 313 271 239 304 242 265 282 314 195 19 168 232 242